SL-16 DEB, 22645

Orbit data source: Space-Track

SL-16 DEB, 22645 is space debris in LEO originally from a launch on Fri, 26 Mar 1993 UTC launched from the Tyuratam Missile And Space Complex (TTMTR). Debris objects in space refer to the collection of defunct objects orbiting the Earth. Examples of debris include non-operational satellites, rocket bodies, and fragments generated from explosions, collisions, or faulty payload assembly.

Loading next visibility...
SL-16 DEB details
Identifier
22645, 1993-016AF
Orbit
LEO
Last TLE update1 day ago
Origin
Flag of CISRVSN RF (CIS)
ManufacturerUnknown
MissionSpacecraft
Bus & MotorUnknown
MassUnknown
Launch date (UTC)
1993-03-26 (32 years ago)
Launch vehicleUnknown
Launch site
Tyuratam Missile And Space Complex (TTMTR)
Object type
Payload
Rocket body
Debris
Shape & HBRUnknown
Radar Cross SectionSmall (<0.1 m²)

Expand to show TLE details & history

TLE from 1 day ago
0 SL-16 DEB
1 22645U 93016AF  24360.06945749  .00001783  00000-0  14347-2 0  9997
2 22645  70.9863 346.4271 0166699  39.4155 321.8941 13.85575696597627
Epoch: 2024-12-25T01:40Z
Definitive object data (Epoch: 2024-12-25T01:40:01.127Z)
Latitude-0.00005°
Longitude-132.64611°
Altitude851.272 km
Speed7.475 km/s
True Right ascension23h 05m 42s
True Declination0° 00' 00"
Sunlit
Object was in daylight at TLE epoch
Visualization TLE readout
Latitude-62.38402°
Longitude-176.44995°
Altitude1,000.788 km
Speed7.334 km/s
Apparent Right ascension22h 03m 24s
Apparent Declination-54° 10' 17"
Sunlit
Object is in daylight
Visualization observer readout
Local Sidereal Time11:20:44
Azimuth144.073° SSE
Elevation-70.717°
Doppler factor1
Orbital elements
Apogee altitude1,064.159 km
Perigee altitude820.103 km
Semi-major axis7,320.268 km
Eccentricity0.0166699
Inclination70.9863°
RAAN346.4271°
Arg. of periapsis39.4155°
True anomaly320.69572°
Mean anomaly321.8941°
Eccentric anomaly321.29688°
Mean motion3.46539 °/min
BSTAR0.0014347
Orbital period103.88 mins
Loading maneuver chart data...
Loading historical data...
Loading historical data...
Loading historical data...
Loading historical data...
Loading historical data...
Loading historical data...
Loading historical data...

SL-16 DEB Visibility forecast

Observer location: undefined°, undefined

Span
Click to sort rows by Start time (UTC) header in descending order
Start Az.
Max El. time (UTC)
Max El. Az.
Max El.
End time (UTC)
End Az.
9 mins2024-12-27 00:35:17.859Z206.887° SW2024-12-27 00:39:17.859Z349.049° N44.059°2024-12-27 00:44:17.859Z21.356° NNE
10 mins2024-12-27 09:40:17.859Z350.862° N2024-12-27 09:44:17.859Z48.949° ENE38.852°2024-12-27 09:50:17.859Z138.735° SSE
8 mins2024-12-27 11:27:17.859Z298.457° NW2024-12-27 11:30:17.859Z263.038° W21.647°2024-12-27 11:35:17.859Z210.082° SW
|